DECAYED
Showing default

FLOCK 4Y 22, 55022 (Decayed)

Orbit data source: Space-Track

FLOCK 4Y 22, 55022 was a payload satellite owned by Planet (US) in LEO that was launched on Tue, 03 Jan 2023 UTC via an FALCON 9 launch vehicle from the Air Force Eastern Test Range (AFETR). Payload-class satellites include a variety of spacecraft equipped with specific instruments for various scientific and technological missions. These include communications satellites like Starlink; space stations such as the ISS; scientific satellites like the Hubble; Earth observation satellites from companies like Planet Labs, Umbra, and HawkEye 360; GPS; miniature CubeSats for education and research; and military/defense satellites.

Not visible in the next 10 days
Identifier
55022, 2023-001P
Orbit
Decayed
Country
Flag of USUS
Related business
Manufacturer
Planet
Mission
Decayed Commercial Imaging
Bus & Motor
CUBESAT 3U, Unknown motor
Mass
5.7 kg wet, 5.7 kg dry
Launch date (UTC)
2023-01-03 (3 years ago)
Launch vehicle
FALCON 9
Launch site
Air Force Eastern Test Range (AFETR)
Object type
Payload
Rocket body
Debris
Shape & HBR
Box + 2 Pan, 1.0 m
Radar Cross Section
0.108 m², Medium (>0.1 m² and < 1m²)

Expand to show TLE details & history
Last TLE update: 8 months ago

TLE from 8 months ago
0 FLOCK 4Y 22
1 55022U 23001P   25277.48768169  .12293842  24866-5  14907-2 0  9997
2 55022  97.3342 355.4664 0013606 267.5703  92.4036 16.36120405154140
Epoch: 2025-10-04T11:42Z
TLE epoch observation values (Epoch: 2025-10-04T11:42:15.698Z)
Latitude
-0.00008°
Longitude
166.48208°
Altitude
179.777 km
Speed
7.798 km/s
True Right ascension
23h 41m 51s
True Declination
0° 00' 00"
Sunlit
Object was in full shadow at epoch
Visualization orbit readout
Latitude
Unknown
Longitude
Unknown
Altitude
Unknown
Speed
Unknown
Apparent Right ascension
Unknown
Apparent Declination
Unknown
Sunlit
N/A
Visualization observer readout
Local Sidereal Time
04:38:31
Azimuth
Unknown
Elevation
Unknown
Doppler factor
Unknown
Orbital elements
Apogee altitude
181.866 km
Perigee altitude
164.039 km
Semi-major axis
6,551.09 km
Eccentricity
0.00136
Inclination
97.3342°
RAAN
355.4664°
Arg. of periapsis
267.5703°
True anomaly
92.55936°
Mean anomaly
92.4036°
Eccentric anomaly
92.48148°
Mean motion
4.09329 °/min
Orbital period
87.95 mins
BSTAR
0.0014907
Loading maneuver chart data...
Computing Atmospheric mass density...

Documentation

Showing up to 5 results
|